This is the latest recevied weather packets stored in our database for station/object 4S6DRJ-13. If no packets are shown the sender has not sent any weather packets the latest 1 day(s).
| Time | Temp. | Humidity | Pressure | Rain* | Wind** | Luminosity | Snow |
|---|---|---|---|---|---|---|---|
| 1778120773 | 27.22° C | 89% | 1005.3 hPa | 0 mm | 0.45 m/s, 68° | 322 W/m² | - |
| 1778120711 | 27.22° C | 90% | 1005.3 hPa | 0 mm | 0.89 m/s, 50° | 316 W/m² | - |
| 1778120650 | 27.22° C | 91% | 1005.4 hPa | 0 mm | 0 m/s | 309 W/m² | - |
| 1778120589 | 27.22° C | 90% | 1005.2 hPa | 0 mm | 0 m/s | 302 W/m² | - |
| 1778120528 | 27.22° C | 91% | 1005.2 hPa | 0 mm | 0 m/s | 296 W/m² | - |
| 1778120467 | 26.67° C | 91% | 1005.2 hPa | 0 mm | 0 m/s | 286 W/m² | - |
| 1778120406 | 26.67° C | 91% | 1005.1 hPa | 0 mm | 0 m/s | 277 W/m² | - |
| 1778120345 | 26.67° C | 91% | 1005.1 hPa | 0 mm | 0 m/s | 266 W/m² | - |
| 1778120284 | 26.67° C | 91% | 1005.3 hPa | 0 mm | 0 m/s | 256 W/m² | - |
| 1778120223 | 26.67° C | 91% | 1005.2 hPa | 0 mm | 0.45 m/s, 325° | 247 W/m² | - |
| 1778120162 | 26.67° C | 91% | 1005.2 hPa | 0 mm | 0 m/s | 238 W/m² | - |
| 1778120101 | 26.67° C | 91% | 1005.2 hPa | 0 mm | 0.45 m/s, 95° | 232 W/m² | - |
| 1778120040 | 26.67° C | 92% | 1005.1 hPa | 0 mm | 0 m/s | 225 W/m² | - |
| 1778119979 | 26.67° C | 92% | 1004.9 hPa | 0 mm | 0 m/s | 220 W/m² | - |
| 1778119918 | 26.67° C | 92% | 1005.1 hPa | 0 mm | 0 m/s | 215 W/m² | - |
| 1778119857 | 26.67° C | 92% | 1005.1 hPa | 0 mm | 0.89 m/s, 107° | 211 W/m² | - |
| 1778119796 | 26.67° C | 92% | 1005.2 hPa | 0 mm | 0.89 m/s, 71° | 207 W/m² | - |
| 1778119736 | 26.67° C | 92% | 1005.1 hPa | 0 mm | 0.89 m/s, 106° | 203 W/m² | - |
| 1778119674 | 26.67° C | 92% | 1005.1 hPa | 0 mm | 1.79 m/s, 77° | 200 W/m² | - |
| 1778119613 | 26.67° C | 92% | 1005.1 hPa | 0 mm | 0.45 m/s, 84° | 196 W/m² | - |
| 1778119552 | 26.67° C | 92% | 1005.1 hPa | 0 mm | 0 m/s | 191 W/m² | - |
| 1778119491 | 26.67° C | 92% | 1005.1 hPa | 0 mm | 0.45 m/s, 126° | 187 W/m² | - |
| 1778119430 | 26.67° C | 92% | 1005 hPa | 0 mm | 0.45 m/s, 9° | 184 W/m² | - |
| 1778119308 | 26.67° C | 92% | 1005.1 hPa | 0 mm | 0.45 m/s, 354° | 170 W/m² | - |
| 1778119247 | 26.67° C | 92% | 1005.2 hPa | 0 mm | 0.45 m/s, 351° | 160 W/m² | - |
* Rain latest hour (hover to see other rain measurements)
** Current wind speed in m/s (hover to see current wind gust speed)